EW4486 Weather Reports


time (UTC)temp
C
wind
direction
speed
KPH
gust
KPH
rain 1hr
cm
rain 24hr
cm
rain mn
cm
humidity
%
barometer
mb
20260504081512 7 248 1.6 9.7 0.00 0.00 0.00 55 1017.9
20260504044545 8 313 0.0 8.0 0.00 0.00 0.00 33 1019.1
20260504043053 8 248 3.2 9.7 0.00 0.00 0.00 31 1019.1
20260504041545 8 244 1.6 9.7 0.00 0.00 0.00 31 1019.1
20260504040044 8 248 4.8 12.9 0.00 0.00 0.00 30 1019.2
20260504034547 9 249 4.8 19.3 0.00 0.00 0.00 28 1019.2
20260504033040 8 268 4.8 11.3 0.00 0.00 0.00 28 1019.2
20260504031542 8 248 3.2 16.1 0.00 0.00 0.00 31 1019.2
20260504030038 8 237 4.8 11.3 0.00 0.00 0.00 29 1019.3
20260504024542 8 252 4.8 16.1 0.00 0.00 0.00 30 1019.6
20260504023037 8 327 1.6 12.9 0.00 0.00 0.00 33 1019.5
20260504021539 8 260 6.4 19.3 0.00 0.00 0.00 28 1019.4
20260504020041 8 286 6.4 16.1 0.00 0.00 0.00 28 1019.2
20260504014538 8 257 3.2 19.3 0.00 0.00 0.00 31 1019.0
20260504013047 8 242 4.8 12.9 0.00 0.00 0.00 31 1018.9
20260504011534 8 273 4.8 14.5 0.00 0.00 0.00 30 1018.8
20260504010037 8 261 6.4 14.5 0.00 0.00 0.00 28 1018.8
20260504004533 9 240 6.4 12.9 0.00 0.00 0.00 28 1018.8
20260504003032 9 254 4.8 16.1 0.00 0.00 0.00 28 1018.7
20260504001537 10 225 3.2 9.7 0.00 0.00 0.00 27 1018.7
20260504000031 10 245 4.8 19.3 0.00 0.00 0.00 25 1018.6
20260503234531 11 193 6.4 16.1 0.00 0.00 0.00 24 1018.5
20260503233031 11 232 4.8 14.5 0.00 0.00 0.00 23 1018.4
20260503231531 11 247 4.8 19.3 0.00 0.00 0.00 22 1018.3
20260503230039 12 230 8.0 14.5 0.00 0.00 0.00 21 1018.4
20260503224528 12 239 6.4 16.1 0.00 0.00 0.00 26 1018.5
20260503223027 12 53 3.2 17.7 0.00 0.00 0.00 25 1018.8
20260503221530 12 303 8.0 17.7 0.00 0.00 0.00 25 1018.7
20260503220025 12 288 3.2 17.7 0.00 0.00 0.00 26 1018.6
20260503214536 12 244 6.4 16.1 0.00 0.00 0.00 25 1018.9
20260503213025 13 265 8.0 19.3 0.00 0.00 0.00 23 1019.1
20260503211524 13 255 8.0 19.3 0.00 0.00 0.00 24 1019.1
20260503210023 13 232 8.0 19.3 0.00 0.00 0.00 23 1019.1
20260503204523 12 300 9.7 22.5 0.00 0.00 0.00 22 1019.2
20260503203032 13 267 8.0 20.9 0.00 0.00 0.00 25 1019.1
20260503201522 12 284 4.8 17.7 0.00 0.00 0.00 25 1019.6
20260503200023 13 226 8.0 17.7 0.00 0.00 0.00 22 1019.5
20260503194520 12 226 9.7 29.0 0.00 0.00 0.00 26 1019.7
20260503193034 12 355 4.8 20.9 0.00 0.00 0.00 30 1019.7
20260503191533 12 239 6.4 24.1 0.00 0.00 0.00 23 1019.9
20260503190025 12 224 6.4 19.3 0.00 0.00 0.00 26 1020.2
20260503184512 11 328 3.2 30.6 0.00 0.00 0.00 26 1020.3
20260503183010 11 241 6.4 19.3 0.00 0.00 0.00 29 1020.4
20260503181508 11 251 11.3 19.3 0.00 0.00 0.00 26 1020.7
20260503180006 11 252 8.0 16.1 0.00 0.00 0.00 28 1020.8
20260503174505 10 329 8.0 17.7 0.00 0.00 0.00 27 1020.9
20260503173005 10 80 8.0 16.1 0.00 0.00 0.00 28 1021.1
20260503171501 10 157 9.7 16.1 0.00 0.00 0.00 29 1021.1